TimeEDT,TemperatureF,Dew PointF,Humidity,Sea Level PressureIn,VisibilityMPH,Wind Direction,Wind SpeedMPH,Gust SpeedMPH,PrecipitationIn,Events,Conditions,WindDirDegrees,DateUTC
12:54 AM,37.0,27.0,67,30.04,10.0,Calm,Calm,-,N/A,,Clear,0,2013-03-28 04:54:00
1:54 AM,35.1,27.0,72,30.04,10.0,Calm,Calm,-,N/A,,Clear,0,2013-03-28 05:54:00
2:54 AM,36.0,26.1,67,30.03,10.0,Calm,Calm,-,N/A,,Clear,0,2013-03-28 06:54:00
3:54 AM,34.0,26.1,73,30.03,10.0,WNW,3.5,-,N/A,,Clear,290,2013-03-28 07:54:00
4:54 AM,35.1,27.0,72,30.02,10.0,WNW,3.5,-,N/A,,Clear,290,2013-03-28 08:54:00
5:54 AM,34.0,27.0,75,30.02,10.0,West,3.5,-,N/A,,Clear,280,2013-03-28 09:54:00
6:54 AM,34.0,27.0,75,30.04,10.0,WNW,5.8,-,N/A,,Clear,290,2013-03-28 10:54:00
7:54 AM,37.0,28.0,70,30.05,10.0,NW,6.9,-,N/A,,Clear,310,2013-03-28 11:54:00
8:54 AM,41.0,30.9,67,30.05,10.0,WNW,12.7,-,N/A,,Scattered Clouds,300,2013-03-28 12:54:00
9:54 AM,42.1,28.9,60,30.06,10.0,NW,10.4,18.4,N/A,,Overcast,320,2013-03-28 13:54:00
10:54 AM,46.0,28.9,51,30.06,10.0,NW,11.5,19.6,N/A,,Scattered Clouds,320,2013-03-28 14:54:00
11:54 AM,46.0,28.0,50,30.06,10.0,WNW,11.5,19.6,N/A,,Overcast,300,2013-03-28 15:54:00
12:54 PM,46.0,27.0,47,30.06,10.0,NW,11.5,19.6,N/A,,Overcast,320,2013-03-28 16:54:00
1:54 PM,46.9,25.0,42,30.06,10.0,NNW,10.4,-,N/A,,Overcast,340,2013-03-28 17:54:00
2:54 PM,45.0,27.0,49,30.07,10.0,NW,12.7,-,N/A,,Overcast,320,2013-03-28 18:54:00
3:54 PM,46.0,28.0,50,30.07,10.0,NW,12.7,19.6,N/A,,Overcast,310,2013-03-28 19:54:00
4:54 PM,46.9,25.0,42,30.07,10.0,NW,12.7,-,N/A,,Overcast,320,2013-03-28 20:54:00
5:54 PM,46.9,26.1,44,30.09,10.0,NW,10.4,-,N/A,,Overcast,320,2013-03-28 21:54:00
6:54 PM,46.0,27.0,47,30.11,10.0,NNW,8.1,16.1,N/A,,Overcast,330,2013-03-28 22:54:00
7:54 PM,45.0,27.0,49,30.13,10.0,NNW,8.1,-,N/A,,Overcast,330,2013-03-28 23:54:00
8:54 PM,45.0,27.0,49,30.14,10.0,NW,8.1,-,N/A,,Overcast,310,2013-03-29 00:54:00
9:54 PM,45.0,27.0,49,30.16,10.0,NW,6.9,-,N/A,,Overcast,320,2013-03-29 01:54:00
10:54 PM,44.1,27.0,51,30.17,10.0,NW,6.9,-,N/A,,Overcast,310,2013-03-29 02:54:00
11:54 PM,43.0,27.0,53,30.17,10.0,NW,5.8,-,N/A,,Overcast,320,2013-03-29 03:54:00